Regional Weather Roundup
Issued by NWS

Home | Current Version | Previous Version | Graphics & Text | Print | Product List | Glossary On
Versions: 1 2 3 4 5 6 7 8 9 10 11 12 13 14 15 16 17 18 19 20 21 22 23 24 25 26 27 28 29 30 31 32 33 34 35 36 37 38 39 40 41 42 43 44 45 46 47 48 49 50
000
ASUS43 KIND 021059
RWRIN

WEATHER ROUNDUP FOR INDIANA
NATIONAL WEATHER SERVICE INDIANAPOLIS IN
700 AM EDT SUN AUG 02 2015

NOTE: "FAIR" INDICATES FEW OR NO CLOUDS BELOW 12,000 FEET WITH NO
SIGNIFICANT WEATHER AND/OR OBSTRUCTIONS TO VISIBILITY.

* - STATION DOES NOT REPORT WEATHER SUCH AS PRECIPITATION OR FOG.

+ - STATION NOT QUALITY CONTROLLED BY THE NATIONAL WEATHER SERVICE.
    USE DATA WITH CAUTION...ESPECIALLY DEWPOINT AND RELATIVE
    HUMIDITY OBSERVATIONS.

INZ001>003-010>013-019-020-021200-
NORTHWEST INDIANA

CITY           SKY/WX    TMP DP  RH WIND       PRES   REMARKS
GARY /AIRPORT/ PTCLDY    70  66  88 SW7       29.88F
KNOX *+        CLEAR     63  63 100 S6        29.90S
LA PORTE +     CLEAR     65  65 100 CALM      29.91S
MONTICELLO +   CLEAR     64  63  96 S6        29.92S
RENSSELAER +   CLEAR     63  63 100 SW5       29.92S

$$

LMZ046-743>745-021200-
SOUTHERN LAKE MICHIGAN

STATION/POSITION TIME  TEMP    WIND        PRES    WAVE
                       AIR SEA DIR/SP/G            HT
                 (UTC) (F)     (DEG/KT/KT) (MB)    (FT)
BURNS HARBOR     1000   72     210/ 10/ 13 1012.5S
MICHIGAN CITY    1000   71     180/ 10/ 11   N/A
5NW MICH CITY    1000   73 73  230/ 12/ 16   N/A     2

$$

INZ004-005-014>016-021>024-021200-
NORTH CENTRAL INDIANA

CITY           SKY/WX    TMP DP  RH WIND       PRES   REMARKS
GOSHEN         CLEAR     65  62  90 SW8       29.91S
LOGANSPORT +   CLEAR     61  55  82 S6        29.94S
SOUTH BEND     CLEAR     66  62  87 SW3       29.91R
WARSAW +       CLEAR     66  61  82 SW3       29.92S

$$

INZ006>009-017-018-025>027-021200-
NORTHEAST INDIANA

CITY           SKY/WX    TMP DP  RH WIND       PRES   REMARKS
ANGOLA *+      CLEAR     68  63  83 W5        29.92R
FORT WAYNE     PTCLDY    64  60  87 SW6       29.94R

$$

INZ028-029-035-036-043>045-051>053-021200-
WEST CENTRAL INDIANA

CITY           SKY/WX    TMP DP  RH WIND       PRES   REMARKS
CRAWFORDSVL +  CLEAR     61  60  96 S5          N/A
GREENCASTLE +  CLEAR     61  55  82 CALM      29.98R
LAFAYETTE      CLEAR     63  60  90 SW3       29.93R
TERRE HAUTE    CLEAR     60  58  92 CALM      29.96R

$$

INZ030>032-037>040-046>048-054>057-064-065-021200-
CENTRAL INDIANA

CITY           SKY/WX    TMP DP  RH WIND       PRES   REMARKS
COLUMBUS       CLEAR     63  59  88 CALM      29.98
FRANKFORT +    CLEAR    N/A N/A N/A CALM      29.96S
GREENWOOD *+   CLEAR     63  57  82 CALM      29.98R
INDIANAPOLIS   PTCLDY    64  58  80 SW7       29.95S
-EAGLE CREEK   CLEAR     63  59  87 CALM      29.96R
KOKOMO *+      CLEAR     64  57  77 SW5       29.95R
MT COMFORT *+  CLEAR     63 N/A N/A S5        29.97S
SHELBYVILLE    CLEAR     62  58  86 S3        29.97R
ZIONSVILLE +   CLEAR     62  58  86 S5        29.96S

$$

INZ033-034-041-042-049-050-058-059-021200-
EAST CENTRAL INDIANA

CITY           SKY/WX    TMP DP  RH WIND       PRES   REMARKS
MUNCIE         CLEAR     65  58  78 SW7       29.96R

$$

INZ060-061-067>069-081>083-085>088-021200-
SOUTHWEST INDIANA

CITY           SKY/WX    TMP DP  RH WIND       PRES   REMARKS
EVANSVILLE     PTCLDY    67  64  90 CALM      29.97S
HUNTINGBURG *+ PTCLDY    63  59  88 SE3       29.98S

$$

INZ062-063-066-070>080-084-089>092-021200-
SOUTH CENTRAL AND SOUTHEAST INDIANA

CITY           SKY/WX    TMP DP  RH WIND       PRES   REMARKS
BLOOMINGTON    CLEAR     59  57  93 CALM      29.98R
MADISON *+     PTCLDY    61  59  94 CALM      30.01S
SEYMOUR +      PTCLDY    59  59 100 CALM      29.98S

$$




USA.gov is the U.S. government's official web portal to all federal, state and local government web resources and services.